Location: Eckley Miners' Village
(40.9930°N, 75.8630°W)
Time: 08:18:01
(UTC-04:00)

ISS - Visible Passes

Search period start: 11 September 2024 00:00
Search period end: 21 September 2024 00:00
Orbit: 415 x 425 km, 51.6° (Epoch: 11 September)

Date Brightness Start Highest point End Pass type
(mag) Time Alt. Az. Time Alt. Az. Time Alt. Az.
11 Sep -2.9 20:00:57 10° SSW 20:03:57 30° SE 20:06:46 11° ENE visible
11 Sep -1.7 21:37:35 10° W 21:39:46 29° WNW 21:39:46 29° WNW visible
12 Sep -3.0 20:49:48 10° WSW 20:53:06 53° NNW 20:54:44 26° NE visible
13 Sep -3.8 20:02:03 10° SW 20:05:24 87° NW 20:08:46 10° NE visible
13 Sep -1.2 21:40:02 10° WNW 21:42:18 19° NNW 21:42:18 19° NNW visible
14 Sep -1.7 20:51:45 10° W 20:54:35 25° NNW 20:56:36 15° NNE visible
15 Sep -2.2 20:03:24 10° W 20:06:30 35° NNW 20:09:39 10° NE visible
15 Sep -0.8 21:42:05 10° NW 21:43:35 14° NNW 21:43:35 14° NNW visible
16 Sep -1.1 20:53:28 10° NW 20:55:42 16° NNW 20:57:24 12° NNE visible
17 Sep -1.4 20:04:41 10° WNW 20:07:14 20° NNW 20:09:49 10° NNE visible
17 Sep -0.6 21:43:13 10° NNW 21:43:56 12° NNW 21:43:56 12° NNW visible
18 Sep -1.1 20:54:33 10° NW 20:56:19 14° N 20:57:23 12° NNE visible
19 Sep -1.1 20:05:35 10° NW 20:07:33 15° N 20:09:30 10° NNE visible
19 Sep -0.5 21:43:09 10° NNW 21:43:34 12° NNW 21:43:34 12° NNW visible
20 Sep -1.2 20:54:31 10° NNW 20:56:24 14° N 20:56:42 14° NNE visible
